Regional Weather Roundup
Issued by NWS Sioux Falls, SD

Home | Current Version | Previous Version | Graphics & Text | Print | Product List | Glossary On
Versions: 1 2 3 4 5 6 7 8 9 10 11 12 13 14 15 16 17 18 19 20 21 22 23 24 25 26 27 28 29 30 31 32 33 34 35 36 37 38 39 40 41 42 43 44 45 46 47 48 49 50
000
ASUS43 KFSD 231202
RWRFSD

WEATHER ROUNDUP FOR SE SOUTH DAKOTA/SW MINNESOTA/NW IOWA
NATIONAL WEATHER SERVICE SIOUX FALLS SD
700 AM CDT MON APR 23 2018

NOTE: "FAIR" INDICATES FEW OR NO CLOUDS BELOW 12,000 FEET WITH NO
SIGNIFICANT WEATHER AND OR OBSTRUCTIONS TO VISIBILITY.


SDZ038>040-050-052>070-231300-
SOUTHEAST SOUTH DAKOTA

CITY           SKY/WX    TMP DP  RH WIND       PRES   REMARKS
BROOKINGS      CLEAR     36  32  85 CALM      30.21S
CHAMBERLAIN    CLEAR     36  36 100 CALM      30.16S
6HR MIN TEMP:  36; 6HR MAX TEMP:  44;

HURON            N/A     38  36  92 SE7       30.18S FOG
6HR MIN TEMP:  38; 6HR MAX TEMP:  44;

MADISON        FAIR      34  34 100 CALM      30.21R
MITCHELL       CLEAR     38  36  92 SE7       30.20R FOG
6HR MIN TEMP:  37; 6HR MAX TEMP:  45;

SIOUX FALLS    PTCLDY    35  32  88 CALM      30.21R
6HR MIN TEMP:  33; 6HR MAX TEMP:  43;

WINNER         FAIR      42  35  76 S9        30.16R
YANKTON        CLEAR     39  37  92 E5        30.20S
$$

MNZ071-072-080-081-089-090-097-098-231300-
SOUTHWEST MINNESOTA

CITY           SKY/WX    TMP DP  RH WIND       PRES   REMARKS
FAIRMONT       CLEAR     33  31  92 CALM      30.24S
JACKSON        CLEAR     36  32  87 CALM      30.23R
LUVERNE        CLEAR     34  32  93 CALM      30.22S
MARSHALL       CLEAR     37  33  85 SE3       30.23R
6HR MIN TEMP:  36; 6HR MAX TEMP:  39;

MONTEVIDEO     PTCLDY    37  37 100 S3        30.23R FOG
PIPESTONE      CLEAR    N/A N/A N/A SE7       30.21S
REDWOOD FALLS  PTCLDY    36  36 100 CALM      30.23S
TRACY          CLEAR     42  36  79 S8        30.21S
WINDOM         CLEAR     36  21  55 CALM      30.22S
WORTHINGTON    PTCLDY    37  33  85 CALM      30.22S
$$

IAZ001>003-012>014-020>022-031-032-NEZ013-014-SDZ071-231300-
NORTHWEST IOWA

CITY           SKY/WX    TMP DP  RH WIND       PRES   REMARKS
CHEROKEE       CLEAR     34  34 100 NE3       30.22R FOG
DENISON        PTCLDY    36  30  80 NE5       30.23R
ESTHERVILLE    CLEAR     32  32 100 CALM      30.23R
LE MARS        CLEAR     34  34 100 CALM      30.21S FOG
ORANGE CITY    CLEAR     41  37  87 E6        30.21S
SHELDON        CLEAR     36  36 100 E5        30.20S
SIOUX CITY     CLEAR     35  34  96 NW5       30.20S
6HR MIN TEMP:  32; 6HR MAX TEMP:  44;

SPENCER        CLEAR     34  32  92 E3        30.22S
6HR MIN TEMP:  32; 6HR MAX TEMP:  41;

STORM LAKE     CLOUDY    39  36  87 E3        30.21S
$$

ABBREVIATIONS USED IN REMARKS
   TC - TEMPERATURE IN CELSIUS
  WCI - WIND CHILL INDEX
   HX - HEAT INDEX
  VSB - VISIBILITY





USA.gov is the U.S. government's official web portal to all federal, state and local government web resources and services.